[[{"header":{"parameterUnit":"m.s-1","parameterCategory":1,"la1":30.2991,"la2":30.254,"lo1":-89.0895,"lo2":-89.0444,"dy":0.0017,"dx":0.0017,"nx":28,"ny":28,"refTime":"2024-05-14T09:00:00:Z","depth":0,"parameterNumber":2,"parameterNumberName":"U-component_of_WINDS"},"data":[0,0,0,0,0,0,0,0,0,0,0,0,0,0,0,0,0,0,0,0,0,0,0,0,0,0,0,0,0,0,0,0,0,0,0,0,0,0,0,0,0,0,0,0,0,0,0,0,0,0,0,0,0,0,0,0,0,0,0.6798,0.6799,0,0.6879,0.6879,0.688,0.6813,0.681,0.6807,0.6804,0.6895,0.69,0.6905,0,0,0,0,0,0,0,0,0,0,0,0,0,0.6595,0.6599,0.6798,0.6799,0.68,0.6878,0.688,0.6881,0.6813,0.681,0.6806,0.6803,0.6893,0.6899,0.6905,0,0,0,0,0,0,0,0,0,0,0,0,0,0.668,0.66,0.6798,0.6776,0.6775,0.6878,0.688,0.6881,0.6814,0.681,0.6805,0.6801,0.6891,0.6899,0.6906,0.7039,0,0,0.693,0.6933,0,0,0,0,0,0,0,0,0.6675,0.6688,0.6778,0.6778,0.6776,0.6831,0.6841,0.6934,0.6815,0.6799,0.6804,0.6799,0.6878,0.6886,0.6911,0.7043,0.7047,0.693,0.6935,0.6938,0.694,0,0,0,0,0,0,0,0.667,0.6684,0.683,0.678,0.6779,0.6764,0.6772,0.6858,0.6862,0.68,0.6795,0.6805,0.6877,0.6904,0.6913,0.7048,0.693,0.6937,0.6941,0.6944,0.7295,0.73,0,0,0,0,0,0,0.6665,0.6679,0.6828,0.6833,0.6714,0.6772,0.678,0.6818,0.6861,0.6863,0.6809,0.6802,0.6893,0.6904,0.6916,0.7075,0.6938,0.6945,0.695,0.729,0.7296,0.7301,0,0,0,0,0,0,0.6661,0.6679,0.6824,0.6755,0.6772,0.678,0.6823,0.6822,0.6849,0.6867,0.6868,0.6836,0.689,0.6905,0.7008,0.7077,0.6949,0.6956,0.7285,0.7292,0.7299,0.7394,0,0,0,0,0,0,0.6655,0.6678,0.6726,0.6756,0.6776,0.6914,0.6827,0.6826,0.6861,0.6853,0.6892,0.6895,0.6888,0.6997,0.7016,0.7085,0.6961,0.7279,0.7288,0.7296,0.7385,0.7403,0.7419,0,0,0,0,0,0.6648,0.6751,0.6729,0.6747,0.6837,0.6918,0.693,0.6917,0.6867,0.6917,0.6929,0.6894,0.7066,0.7009,0.7029,0.7102,0.7274,0.7285,0.7296,0.7377,0.74,0.7419,0,0,0,0,0,0,0.6732,0.6755,0.673,0.6846,0.688,0.6906,0.6969,0.6941,0.6992,0.6983,0.6967,0.6977,0.7086,0.7104,0.7039,0.7233,0.7163,0.7178,0.7217,0.7239,0.7256,0.7251,0.6968,0,0,0,0,0,0.6763,0.6825,0.6842,0.6943,0.6961,0.6962,0.6997,0.6984,0.702,0.7035,0.7055,0.7093,0.7156,0.7198,0.7257,0.7386,0.7396,0.7446,0.7464,0.7478,0.7492,0.7564,0.7587,0.7336,0.7336,0.7336,0,0,0.683,0.685,0.6891,0.696,0.6985,0.7052,0.6975,0.7049,0.7099,0.7047,0.7146,0.7162,0.7204,0.7321,0.7374,0.734,0.7563,0.7491,0.7502,0.7509,0.7577,0.7601,0.7622,0.7344,0.7342,0.7341,0,0,0.6986,0.7006,0.7093,0.7119,0.7156,0.7156,0.7177,0.7208,0.7215,0.7313,0.7276,0.7337,0.7445,0.7477,0.7508,0.7676,0.7646,0.7695,0.7787,0.7857,0.7877,0.7895,0.7957,0.7979,0.7709,0.7709,0.7709,0,0.7066,0.7162,0.7142,0.7218,0.7251,0.7203,0.7293,0.732,0.7376,0.7402,0.7361,0.7496,0.7521,0.7646,0.7687,0.7713,0.7738,0.7692,0.7875,0.7893,0.7909,0.7968,0.7991,0.7715,0.7714,0.7714,0.7713,0,0.7258,0.7326,0.7392,0.7444,0.7484,0.7567,0.7562,0.7605,0.7588,0.7594,0.7696,0.7724,0.7788,0.7816,0.7801,0.794,0.7918,0.7876,0.7806,0.7939,0.7995,0.8017,0.7723,0.7721,0.772,0.7718,0,0,0.7472,0.7511,0.7536,0.7559,0.7597,0.7651,0.7732,0.7792,0.7831,0.7871,0.7941,0.8033,0.7995,0.803,0.8018,0.808,0.8214,0.8031,0.8032,0.8066,0.8371,0.8404,0.843,0.8193,0.8197,0.8201,0.8368,0,0.7631,0.7769,0.7753,0.7887,0.795,0.7906,0.7977,0.801,0.8017,0.8074,0.8082,0.8149,0.8092,0.8114,0.8172,0.8185,0.8275,0.8172,0.8262,0.8265,0.8255,0.8459,0.8493,0.865,0.839,0.8393,0.8396,0,0.7835,0.788,0.8019,0.8048,0.8074,0.8138,0.8192,0.8246,0.8283,0.8284,0.8323,0.8301,0.8385,0.8311,0.8429,0.836,0.8395,0.8407,0.8413,0.8423,0.834,0.8477,0.87,0.8724,0.843,0.8427,0.8424,0,0.798,0.8075,0.8171,0.8193,0.8228,0.8274,0.8292,0.8324,0.8361,0.8409,0.8434,0.8492,0.8526,0.8573,0.8568,0.8514,0.869,0.8614,0.8696,0.8696,0.8737,0.8735,0.8971,0.8756,0.8755,0.8755,0.8754,0,0.8161,0.8249,0.8236,0.8296,0.8393,0.8375,0.8473,0.8485,0.8514,0.8577,0.8543,0.8604,0.8592,0.8654,0.8651,0.8751,0.8766,0.8771,0.877,0.8776,0.8776,0.8801,0.8791,0.8761,0.876,0.8758,0.8757,0,0.834,0.8335,0.8437,0.8461,0.8469,0.854,0.8562,0.862,0.8623,0.8704,0.8722,0.8728,0.8799,0.8798,0.8879,0.8877,0.9001,0.8985,0.8988,0.8986,0.9068,0.9062,0.9331,0.9367,0.9125,0.9128,0.913,0,0.8457,0.8523,0.8553,0.8592,0.8611,0.8674,0.8711,0.8696,0.8737,0.8784,0.8837,0.8903,0.8956,0.9071,0.9085,0.9148,0.9136,0.9226,0.9145,0.915,0.9141,0.9138,0.9146,0.9243,0.9246,0.9248,0.925,0,0.8666,0.866,0.8714,0.8767,0.8812,0.8854,0.8892,0.8926,0.8915,0.8964,0.9034,0.9074,0.9156,0.9224,0.9284,0.9305,0.9278,0.9274,0.9297,0.9305,0.9305,0.9309,0.9034,0.9269,0.9267,0.9266,0.9265,0.9264,0.882,0.8877,0.8907,0.8969,0.8995,0.9032,0.9087,0.9096,0.9153,0.9217,0.9205,0.9284,0.9321,0.9398,0.9424,0.9489,0.9457,0.949,0.9498,0.9507,0.9518,0.9292,0.9499,0.9499,0.9498,0.9498,0.9497,0,0.903,0.9046,0.9102,0.9156,0.9205,0.917,0.9211,0.9255,0.9324,0.9359,0.9411,0.9493,0.9559,0.9577,0.9641,0.9689,0.9678,0.9707,0.9705,0.9711,0.9541,0.9516,0.9715,0.9715,0.9715,0.9715,0.9715,0.9715,0.9145,0.924,0.9238,0.9347,0.9363,0.9438,0.9465,0.95,0.9528,0.962,0.9673,0.9683,0.9713,0.9778,0.9838,0.9842,0.9869,0.9904,0.9903,0.9744,0.9723,0.9702,0.9679,0.9909,0.9909,1.0068,1.007,1.0071]},{"header":{"parameterUnit":"m.s-1","parameterCategory":1,"la1":30.2991,"la2":30.254,"lo1":-89.0895,"lo2":-89.0444,"dy":0.0017,"dx":0.0017,"nx":28,"ny":28,"refTime":"2024-05-14T09:00:00:Z","depth":0,"parameterNumber":3,"parameterNumberName":"V-component_of_WINDS"},"data":[0,0,0,0,0,0,0,0,0,0,0,0,0,0,0,0,0,0,0,0,0,0,0,0,0,0,0,0,0,0,0,0,0,0,0,0,0,0,0,0,0,0,0,0,0,0,0,0,0,0,0,0,0,0,0,0,0,0,1.3692,1.3693,0,1.3761,1.3761,1.3762,1.3731,1.373,1.3728,1.3726,1.3802,1.3805,1.3809,0,0,0,0,0,0,0,0,0,0,0,0,0,1.3539,1.3542,1.3692,1.3693,1.3694,1.3761,1.3761,1.3762,1.3732,1.373,1.3728,1.3726,1.3801,1.3805,1.3809,0,0,0,0,0,0,0,0,0,0,0,0,0,1.3606,1.3543,1.3692,1.3686,1.3686,1.376,1.3761,1.3763,1.3732,1.373,1.3727,1.3725,1.3799,1.3805,1.381,1.3895,0,0,1.3826,1.3829,0,0,0,0,0,0,0,0,1.3602,1.3612,1.3686,1.3687,1.3687,1.3735,1.3735,1.3807,1.3733,1.3715,1.3726,1.3723,1.3782,1.3789,1.3807,1.3898,1.3902,1.3827,1.383,1.3832,1.3834,0,0,0,0,0,0,0,1.3598,1.3609,1.3719,1.3687,1.3688,1.3682,1.3689,1.3749,1.3762,1.3716,1.3714,1.3722,1.3782,1.3802,1.3809,1.3903,1.3827,1.3832,1.3835,1.3837,1.4067,1.407,0,0,0,0,0,0,1.3592,1.3605,1.3717,1.3721,1.3637,1.3687,1.3694,1.3722,1.3761,1.3765,1.3725,1.3721,1.3794,1.3803,1.3811,1.3914,1.3832,1.3838,1.3841,1.4064,1.4068,1.4071,0,0,0,0,0,0,1.3589,1.3603,1.3714,1.3663,1.3676,1.3692,1.3724,1.3725,1.3745,1.3768,1.377,1.3743,1.3792,1.3804,1.3874,1.3916,1.384,1.3845,1.4061,1.4066,1.4069,1.4119,0,0,0,0,0,0,1.3585,1.3602,1.3633,1.3663,1.3679,1.3775,1.3726,1.3728,1.3754,1.375,1.3785,1.3789,1.3791,1.3866,1.3879,1.3922,1.3849,1.4057,1.4063,1.4068,1.4114,1.4125,1.4134,0,0,0,0,0,1.358,1.3646,1.3635,1.3649,1.3719,1.3777,1.3786,1.3786,1.3757,1.379,1.3804,1.3788,1.3909,1.3874,1.3888,1.3933,1.4055,1.4061,1.4068,1.411,1.4123,1.4134,0,0,0,0,0,0,1.3622,1.365,1.3638,1.3715,1.3744,1.3772,1.3813,1.38,1.3839,1.3833,1.3833,1.3841,1.3914,1.3931,1.3891,1.4018,1.3978,1.3987,1.4005,1.4017,1.4027,1.4022,1.3854,0,0,0,0,0,1.364,1.3683,1.3706,1.3772,1.3787,1.3797,1.3823,1.382,1.385,1.3863,1.3882,1.3914,1.3959,1.3989,1.4031,1.4116,1.4124,1.4154,1.4164,1.4172,1.4181,1.4227,1.4241,1.4092,1.4092,1.4092,0,0,1.3678,1.3699,1.3727,1.3781,1.3803,1.3849,1.3808,1.3859,1.3894,1.3871,1.3938,1.3954,1.3989,1.4066,1.4102,1.4082,1.4224,1.418,1.4186,1.4191,1.4235,1.425,1.4262,1.4097,1.4096,1.4095,0,0,1.3772,1.3791,1.3849,1.3871,1.3904,1.391,1.3924,1.3953,1.3962,1.4029,1.4013,1.4055,1.4133,1.4158,1.4182,1.4284,1.4271,1.4298,1.4351,1.4396,1.4408,1.4419,1.4456,1.4469,1.4307,1.4307,1.4307,0,1.3816,1.3884,1.388,1.3932,1.3957,1.3936,1.3995,1.4018,1.4064,1.4082,1.4059,1.4156,1.4178,1.4262,1.4286,1.4305,1.4322,1.4295,1.4406,1.4417,1.4427,1.4462,1.4476,1.431,1.431,1.4309,1.4309,0,1.3937,1.3985,1.4028,1.407,1.41,1.4155,1.4161,1.4192,1.4186,1.4195,1.4264,1.429,1.4337,1.4357,1.4353,1.444,1.4427,1.4405,1.4366,1.4444,1.4478,1.4491,1.4315,1.4313,1.4312,1.4312,0,0,1.4061,1.41,1.4116,1.4135,1.4169,1.4207,1.4261,1.4306,1.4333,1.4365,1.4412,1.4477,1.4457,1.4484,1.4482,1.4522,1.4602,1.4495,1.4496,1.4515,1.4701,1.4718,1.4734,1.4593,1.4595,1.4597,1.4699,0,1.4158,1.4252,1.425,1.4338,1.4383,1.4363,1.4411,1.4438,1.4448,1.4488,1.45,1.4547,1.4516,1.4532,1.457,1.4584,1.464,1.4577,1.4638,1.464,1.4631,1.4752,1.477,1.4865,1.4712,1.4714,1.4716,0,1.4285,1.4319,1.4411,1.4438,1.4457,1.45,1.4541,1.4579,1.4609,1.4614,1.4643,1.4635,1.4692,1.4649,1.4728,1.4685,1.471,1.4721,1.4725,1.4732,1.4684,1.4763,1.4895,1.4909,1.4736,1.4735,1.4733,0,1.4367,1.4436,1.45,1.4517,1.4551,1.4581,1.4597,1.4624,1.4651,1.4688,1.4705,1.4748,1.4772,1.4806,1.481,1.4779,1.4891,1.4848,1.4897,1.4898,1.4923,1.4922,1.5062,1.4937,1.4937,1.4937,1.4936,0,1.4476,1.4534,1.4538,1.4577,1.4642,1.4639,1.4703,1.4716,1.474,1.4783,1.4769,1.481,1.4812,1.4855,1.4859,1.4924,1.4935,1.4942,1.4942,1.4944,1.4943,1.4961,1.4955,1.494,1.494,1.4939,1.4938,0,1.458,1.4584,1.4653,1.4678,1.4686,1.4732,1.4755,1.4793,1.4801,1.4855,1.4868,1.4881,1.4931,1.4937,1.4996,1.4998,1.5077,1.5071,1.5067,1.5066,1.5116,1.5112,1.5273,1.5295,1.5155,1.5156,1.5157,0,1.465,1.4694,1.4723,1.4749,1.4766,1.481,1.4837,1.4835,1.4865,1.4902,1.4936,1.4984,1.5021,1.5101,1.5117,1.5161,1.5156,1.521,1.5163,1.5163,1.5159,1.5156,1.5161,1.5219,1.5221,1.5222,1.5223,0,1.4774,1.4774,1.4813,1.4852,1.4884,1.4916,1.4945,1.4969,1.4971,1.5005,1.5054,1.5083,1.5141,1.5189,1.5233,1.525,1.5238,1.5237,1.5251,1.5254,1.5251,1.5254,1.5093,1.5234,1.5233,1.5232,1.5232,1.5231,1.4864,1.4902,1.4928,1.4972,1.4993,1.5021,1.5059,1.507,1.5111,1.5157,1.5154,1.5208,1.5238,1.5295,1.5316,1.5359,1.5342,1.5362,1.5367,1.5373,1.5378,1.5242,1.5367,1.5367,1.5366,1.5366,1.5366,0,1.4989,1.5004,1.5044,1.5085,1.512,1.5102,1.5134,1.5165,1.5212,1.524,1.5277,1.5334,1.5379,1.5398,1.5443,1.5475,1.547,1.5487,1.5485,1.549,1.539,1.5374,1.549,1.549,1.549,1.549,1.549,1.549,1.5058,1.5121,1.5124,1.5198,1.5214,1.5265,1.5285,1.5311,1.5333,1.5397,1.5434,1.5445,1.547,1.5516,1.5558,1.5563,1.5581,1.56,1.5602,1.5509,1.5497,1.5485,1.547,1.5604,1.5604,1.5698,1.5699,1.57]}]]